Probability
0 1 0 0 0 0 0 2 5 8 8 6 4 3 3 4 5 6 5 4 4 2 1 0 0 0 0 0 0 0 0 0 0 0 0 0 0 0 0 0 0 0 0
1 1 0 0 0 0 1 3 6 9 10 9 7 6 5 6 6 6 5 4 3 2 1 0 0 0 0 0 0 0 0 0 0 0 0 0 0 0 0 0 0 0 0
0 0 0 0 0 0 1 2 5 7 9 10 10 8 7 8 7 5 4 2 1 1 0 0 0 0 0 0 0 0 0 0 0 0 0 0 0 0 0 0 0 0 0
0 0 0 0 0 0 0 1 2 3 4 6 7 7 6 7 7 4 2 1 0 0 0 0 0 0 0 0 0 0 0 0 0 0 0 0 0 0 0 0 0 0 0
0 0 0 0 0 0 0 0 0 0 1 3 4 4 4 5 4 3 1 0 0 0 0 0 0 0 0 0 0 0 0 0 0 0 0 0 0 0 0 0 0 0 0
0 0 0 0 0 0 0 0 0 0 0 2 2 2 3 3 3 1 0 0 0 0 0 0 0 0 0 0 0 0 0 0 0 0 0 0 0 0 0 0 0 0 0
0 0 0 0 0 0 0 0 0 0 0 1 2 2 2 2 2 1 0 0 0 0 0 0 0 0 0 0 0 0 0 0 0 0 0 0 1 1 1 0 0 0 0
0 0 0 1 1 1 0 0 0 0 0 1 1 1 1 1 1 0 0 0 0 0 0 0 0 0 0 0 0 0 0 0 0 0 0 1 2 2 1 0 0 0 0
0 0 1 1 0 0 0 0 0 0 0 0 0 0 0 0 0 0 0 0 0 0 0 0 0 0 0 0 0 0 0 0 0 0 0 1 1 1 0 0 0 0 0
0 1 1 1 0 0 0 0 0 0 0 0 0 0 0 0 0 0 0 0 0 0 0 0 0 0 0 0 0 0 0 0 0 0 1 2 2 1 1 0 1 2 2
0 1 1 1 0 0 0 0 0 0 0 0 0 0 0 0 0 0 0 1 0 0 0 0 1 1 0 0 0 0 0 0 0 1 4 5 5 4 2 2 2 3 3
0 0 0 0 0 0 0 0 0 0 0 0 0 0 0 0 0 0 0 1 0 0 0 1 2 1 0 0 0 0 0 0 0 1 4 7 8 7 6 5 4 4 3
0 0 0 0 0 0 0 0 0 0 0 0 0 0 0 0 0 0 1 2 1 1 0 1 1 1 0 0 0 0 0 0 0 0 3 7 9 10 10 8 6 5 5
0 0 0 0 0 0 0 0 0 1 1 2 2 2 1 1 1 1 3 4 4 3 2 1 1 0 0 0 0 0 0 0 0 0 1 6 10 12 11 9 8 9 10
1 1 1 1 3 3 3 2 1 2 4 5 6 5 4 4 5 6 8 8 6 6 6 4 2 1 0 0 0 1 1 0 0 0 1 4 9 11 11 10 10 12 14
8 7 6 8 11 12 9 7 5 7 8 9 10 10 9 9 11 14 17 16 13 12 11 8 5 2 1 0 0 1 1 0 0 0 0 2 5 9 10 11 12 14 16
23 20 18 18 21 22 20 17 15 15 15 14 14 15 15 16 20 25 28 28 25 22 19 13 7 4 2 1 1 1 1 0 0 0 0 1 2 5 6 7 10 12 15
44 42 37 33 35 36 36 33 29 27 27 25 23 24 25 25 30 37 41 42 39 33 27 20 11 7 5 4 3 2 1 0 0 0 0 1 1 1 1 2 4 6 9
66 64 59 56 57 58 57 53 48 45 45 42 39 37 36 34 37 44 48 48 44 37 29 20 13 9 7 4 3 2 1 0 0 0 0 1 1 0 0 0 0 2 3
80 80 79 79 80 79 76 71 65 59 55 50 46 42 38 35 36 38 40 40 37 31 23 15 9 6 4 3 2 1 0 0 0 0 0 0 0 0 0 0 0 1 1
88 89 91 93 94 91 86 80 71 60 51 44 38 32 29 28 29 27 25 24 23 20 15 9 4 2 1 1 1 0 0 0 0 0 0 0 0 0 0 0 0 0 0
88 91 95 97 97 94 86 75 63 52 43 35 28 22 20 20 19 16 13 13 12 11 8 4 1 0 0 0 0 0 0 0 0 0 0 0 0 0 0 0 0 0 0
83 87 93 96 96 92 81 66 54 45 37 31 24 17 12 11 9 7 6 7 6 5 3 1 0 0 0 0 0 0 0 0 0 0 0 0 0 0 0 0 0 0 0
80 85 91 93 92 86 74 60 51 43 35 27 19 11 7 5 4 2 2 3 3 1 1 0 0 0 0 0 0 0 0 0 0 0 0 0 0 0 0 0 0 0 0
80 83 87 87 82 73 64 56 47 39 30 21 12 7 4 4 2 1 0 1 1 0 0 0 0 0 0 0 0 0 0 0 0 0 0 0 0 0 0 0 0 0 0
79 80 82 80 70 60 55 50 42 33 24 15 8 4 2 3 2 1 0 0 0 0 0 0 0 0 0 0 0 0 0 0 0 0 0 0 0 0 0 0 0 0 0
Wind_Speed
13 16 18 14 13 11 11 12 14 15 16 15 15 15 14 13 12 11 11 11 11 12 12 12 12 12 12 11 11 11 11 10 10 10 10 10 10 10 10 9 8 10 12
15 18 18 14 13 12 12 13 14 15 15 15 15 15 14 13 12 12 11 11 11 12 12 12 11 11 11 11 10 10 10 9 9 9 10 11 10 9 8 5 2 10 10
16 18 18 14 14 13 12 13 14 15 16 16 15 15 14 13 12 12 12 11 11 11 11 11 11 10 10 10 9 9 8 8 7 7 8 9 10 8 7 5 7 10 9
16 16 17 16 14 13 12 12 14 16 17 16 16 16 15 14 13 12 12 11 11 11 10 10 10 9 9 8 8 7 7 6 6 7 7 7 8 10 7 7 7 8 8
15 15 17 17 15 14 13 12 13 15 16 16 16 15 14 13 12 11 11 11 10 10 9 9 9 8 8 7 6 6 5 5 5 10 4 5 7 10 7 7 7 7 7
16 15 18 17 16 14 14 13 13 14 15 15 15 14 13 12 12 11 10 10 9 9 9 8 8 7 6 6 5 4 4 4 9 7 4 4 7 10 8 8 7 7 6
16 15 18 15 15 15 15 14 12 13 12 12 13 12 12 11 10 10 10 9 8 8 8 7 7 6 5 5 4 3 2 4 10 4 4 4 7 10 8 8 7 7 7
15 15 17 16 16 15 15 13 12 11 11 11 11 11 10 10 9 9 9 8 7 7 6 7 6 6 5 4 3 2 2 7 8 3 4 3 9 8 8 7 7 7 7
15 14 16 17 16 16 13 13 11 10 10 10 10 10 10 10 9 9 8 7 7 6 6 6 5 5 4 3 2 1 2 5 9 4 4 3 8 7 7 7 7 7 6
14 14 15 16 16 16 15 14 12 11 10 10 10 10 10 10 9 8 9 8 6 5 5 5 5 4 4 3 2 1 3 7 8 4 3 6 7 5 6 6 6 6 6
13 13 13 15 14 14 14 14 14 12 11 11 11 10 10 10 11 10 8 8 6 5 4 4 4 4 4 6 4 3 6 6 5 1 2 9 5 4 4 4 5 5 6
16 15 13 14 14 13 11 11 10 11 11 11 10 11 9 7 5 5 10 7 5 5 5 4 4 6 9 6 8 8 5 4 3 3 5 7 4 4 4 4 4 4 5
17 16 15 14 13 13 9 9 7 7 8 10 10 9 7 6 5 5 5 8 7 8 7 7 8 5 4 1 2 3 1 3 2 1 7 6 3 2 3 3 4 4 5
17 17 15 15 13 12 10 8 8 7 6 7 8 9 7 5 5 4 4 4 5 4 3 4 3 3 3 3 3 3 3 2 1 0 7 7 4 1 1 2 3 4 5
17 16 16 15 13 11 9 7 8 7 7 7 6 8 7 6 6 5 4 2 4 3 5 4 3 3 3 4 3 2 1 1 2 2 4 8 5 3 1 2 3 5 6
17 16 15 15 14 12 10 8 6 6 5 5 5 6 7 5 4 5 5 4 4 3 2 2 2 3 3 1 1 0 2 2 1 3 2 5 7 4 3 1 2 3 5
16 16 15 15 14 13 12 10 7 6 6 5 4 5 6 6 5 5 4 4 3 2 2 2 2 2 2 2 1 0 1 2 2 2 3 3 2 6 5 4 4 2 2
15 15 15 13 15 14 11 9 6 5 6 4 3 4 5 6 5 5 4 3 3 3 3 3 3 2 2 2 1 0 1 1 2 2 3 3 3 1 5 8 6 5 4
15 15 15 14 14 14 12 8 6 4 3 2 2 2 3 4 4 4 3 2 3 2 2 2 2 2 2 1 1 0 1 1 1 1 1 2 1 2 1 6 7 7 6
14 14 14 14 14 13 11 8 6 5 3 2 1 1 0 1 2 2 2 3 3 2 1 1 2 1 1 1 1 0 1 2 1 1 2 0 0 1 1 1 1 4 5
14 15 15 15 14 12 10 9 8 6 4 3 2 1 1 1 2 2 2 3 3 3 4 4 3 3 1 0 2 3 2 1 1 1 2 2 1 1 1 2 3 3 2
13 14 14 15 15 14 10 7 6 6 4 3 3 2 1 1 2 3 4 3 4 4 4 3 3 1 1 0 3 4 4 5 5 4 3 4 3 3 4 4 4 4 6
10 12 11 12 13 12 11 8 8 6 4 4 4 3 2 2 2 2 3 3 3 3 4 3 3 2 2 1 1 3 4 4 1 5 5 5 4 4 6 5 7 7 8
5 7 9 11 11 12 12 11 12 8 6 5 4 4 4 4 5 4 4 5 5 4 4 4 3 2 1 2 1 1 3 4 4 3 5 6 6 7 7 7 8 8 9
6 6 8 10 11 11 11 12 11 8 6 5 5 7 6 6 6 6 6 6 6 5 5 5 4 3 1 1 0 0 1 2 4 5 6 5 6 7 7 7 7 8 9
10 10 10 12 11 11 10 9 9 10 9 9 8 7 6 5 6 8 8 7 7 6 6 5 5 5 3 2 1 1 3 3 4 5 8 8 8 7 7 7 8 9 8
Wind_Direction
160 148 149 159 159 156 149 143 141 144 146 149 149 148 146 142 137 131 127 123 120 119 119 119 120 119 118 117 116 116 116 117 119 120 123 121 120 120 121 135 164 121 119
152 147 150 158 159 156 149 145 141 140 142 145 146 146 143 141 136 132 128 125 123 122 122 122 122 121 121 121 122 122 122 125 127 130 136 134 129 127 131 147 16 107 134
150 147 155 157 159 156 150 146 142 140 141 142 142 143 142 139 136 133 131 129 128 128 128 127 126 125 124 125 126 127 128 131 136 147 182 153 131 136 138 130 99 123 138
152 152 159 154 159 157 152 148 145 143 143 142 142 143 142 140 138 137 136 135 133 132 132 131 128 126 126 127 130 132 136 139 148 193 200 125 132 133 148 145 139 143 144
154 156 149 157 160 159 156 152 150 148 146 146 146 146 145 143 141 142 142 141 138 136 135 132 129 127 128 129 133 139 147 157 181 232 153 127 119 134 155 157 159 156 153
158 160 149 162 162 161 160 158 155 152 151 150 149 148 147 146 145 146 147 145 143 140 137 133 129 128 129 132 136 144 160 186 219 209 144 157 132 144 166 170 171 169 167
162 161 154 162 162 164 165 164 161 157 154 152 152 151 149 147 148 150 151 149 146 143 139 133 129 127 127 130 136 148 183 226 251 189 170 179 123 143 175 182 181 182 184
163 164 152 161 166 169 170 169 166 162 159 157 155 153 150 150 152 154 155 153 149 145 139 133 130 128 128 130 136 157 208 256 234 209 190 162 115 158 182 189 190 190 193
166 167 161 168 172 174 174 172 170 166 163 160 157 155 155 157 159 160 158 156 152 147 143 138 134 130 128 128 132 159 223 262 260 192 188 143 125 171 186 190 193 193 196
171 175 170 173 174 178 179 178 177 173 170 167 166 167 165 165 170 170 175 159 159 155 148 139 133 128 129 128 132 171 226 243 241 200 178 114 126 171 183 187 193 197 202
177 181 180 176 177 183 182 172 180 180 178 177 179 177 184 191 183 181 177 149 165 161 152 141 139 147 169 160 158 201 231 238 198 215 103 93 129 168 178 182 193 202 209
183 186 184 182 179 185 182 170 187 189 180 198 189 184 199 198 196 190 129 154 171 168 165 156 166 196 224 185 168 204 218 231 234 167 102 103 134 165 179 183 192 205 214
185 187 187 185 185 187 183 178 187 192 180 198 196 191 200 196 194 200 173 171 184 193 196 168 200 209 208 197 227 202 224 247 241 165 104 99 115 154 177 190 202 210 215
189 189 190 185 186 193 189 183 188 192 185 194 187 201 194 200 204 197 211 190 190 198 199 215 208 183 207 198 224 229 200 240 256 267 95 89 80 97 193 220 223 224 225
191 191 191 189 185 190 194 195 193 197 191 192 191 197 206 202 205 196 204 212 225 205 195 218 218 182 218 208 222 244 270 322 296 296 120 102 84 65 40 258 248 243 241
193 192 189 191 185 188 192 199 193 198 195 200 196 198 206 217 205 205 200 201 219 219 229 220 194 199 225 238 225 291 295 303 25 294 298 132 111 85 58 12 300 273 259
194 191 190 190 186 189 194 196 193 193 187 197 192 199 209 223 211 216 215 200 201 181 172 214 190 215 208 199 194 211 311 318 334 315 298 292 169 111 82 58 38 5 311
194 189 190 190 187 188 193 192 191 187 182 187 192 200 212 231 227 228 223 206 181 184 181 179 204 213 218 231 216 265 295 292 323 313 294 288 305 290 105 72 56 45 35
194 190 189 192 187 185 182 178 185 176 172 169 182 216 217 238 241 237 231 191 171 183 200 200 180 229 219 226 221 243 305 307 306 304 314 310 353 308 346 101 85 64 50
192 191 188 187 186 179 175 171 172 156 141 126 115 110 150 236 249 245 213 177 162 155 166 181 159 171 271 253 265 331 322 314 286 278 258 231 305 306 327 356 200 116 87
192 190 188 187 181 176 173 172 167 159 148 133 133 130 164 187 193 197 184 166 172 168 177 180 171 160 149 294 235 224 206 220 218 215 246 247 192 263 280 284 289 305 217
196 193 189 188 180 178 171 162 151 143 138 140 134 117 108 169 193 186 186 173 160 157 159 157 161 171 125 273 275 263 240 205 204 206 219 226 244 250 261 268 294 279 287
194 192 188 183 177 170 152 141 132 129 135 147 149 144 144 141 138 126 134 123 126 133 131 136 146 169 169 149 328 288 281 282 227 192 220 236 246 268 274 275 266 271 274
165 173 173 167 161 151 150 153 155 158 160 158 145 128 102 91 93 97 101 105 101 98 105 108 90 104 153 163 139 340 337 341 298 276 217 221 238 255 268 278 281 275 269
97 118 127 129 129 136 144 149 153 149 136 129 126 110 101 90 85 90 90 91 90 90 90 90 91 79 74 35 61 213 256 257 264 274 284 274 256 257 261 268 276 279 279
79 89 98 101 102 110 118 124 127 128 127 128 125 118 109 97 88 89 90 89 93 95 95 91 87 82 65 55 352 311 286 286 285 284 284 282 281 281 281 283 279 276 278